| time (UTC) | temp C | wind direction | speed KPH | gust KPH | rain 1hr cm | rain 24hr cm | rain mn cm | humidity % | barometer mb |
| 20260504160437 | 22 | 126 | 3.2 | 3.2 | 0.00 | 0.00 | 0.00 | 45 | 1016.9 |
| 20260504150900 | 21 | 130 | 1.6 | 1.6 | 0.00 | 0.00 | 0.00 | 51 | 1016.9 |
| 20260504150357 | 21 | 129 | 3.2 | 3.2 | 0.00 | 0.00 | 0.00 | 52 | 1017.1 |
| 20260504141327 | 20 | 159 | 1.6 | 1.6 | 0.00 | 0.00 | 0.00 | 57 | 1017.1 |
| 20260504140823 | 20 | 194 | 1.6 | 1.6 | 0.00 | 0.00 | 0.00 | 54 | 1017.3 |
| 20260504140319 | 20 | 132 | 1.6 | 1.6 | 0.00 | 0.00 | 0.00 | 53 | 1017.3 |
| 20260504130748 | 15 | 180 | 0.0 | 0.0 | 0.00 | 0.00 | 0.00 | 63 | 1017.6 |
| 20260504130244 | 15 | 121 | 0.0 | 0.0 | 0.00 | 0.00 | 0.00 | 63 | 1017.6 |
| 20260504120208 | 10 | 120 | 0.0 | 0.0 | 0.00 | 0.00 | 0.00 | 83 | 1017.1 |
| 20260504110635 | 8 | 126 | 0.0 | 0.0 | 0.00 | 0.00 | 0.00 | 84 | 1016.7 |
| 20260504110131 | 8 | 126 | 0.0 | 0.0 | 0.00 | 0.00 | 0.00 | 83 | 1016.6 |
| 20260504100557 | 8 | 127 | 0.0 | 0.0 | 0.00 | 0.00 | 0.00 | 84 | 1016.4 |
| 20260504081950 | 7 | 127 | 0.0 | 0.0 | 0.00 | 0.00 | 0.00 | 85 | 1016.1 |
| 20260504081448 | 7 | 127 | 0.0 | 0.0 | 0.00 | 0.00 | 0.00 | 86 | 1016.2 |
| 20260504080943 | 7 | 127 | 0.0 | 0.0 | 0.00 | 0.00 | 0.00 | 88 | 1016.4 |
| 20260504080440 | 7 | 127 | 0.0 | 0.0 | 0.00 | 0.00 | 0.00 | 89 | 1016.6 |
| 20260504070408 | 7 | 127 | 0.0 | 0.0 | 0.00 | 0.00 | 0.00 | 87 | 1016.5 |
| 20260504050253 | 8 | 128 | 0.0 | 0.0 | 0.00 | 0.00 | 0.00 | 80 | 1017.6 |
| 20260504045751 | 8 | 127 | 0.0 | 0.0 | 0.00 | 0.00 | 0.00 | 82 | 1017.5 |
| 20260504045250 | 8 | 127 | 0.0 | 0.0 | 0.00 | 0.00 | 0.00 | 82 | 1017.7 |
| 20260504044748 | 8 | 127 | 0.0 | 0.0 | 0.00 | 0.00 | 0.00 | 84 | 1017.4 |
| 20260504044246 | 8 | 127 | 0.0 | 0.0 | 0.00 | 0.00 | 0.00 | 83 | 1017.5 |
| 20260504043743 | 8 | 128 | 0.0 | 0.0 | 0.00 | 0.00 | 0.00 | 82 | 1017.6 |
| 20260504043239 | 8 | 128 | 0.0 | 0.0 | 0.00 | 0.00 | 0.00 | 85 | 1017.8 |
| 20260504042738 | 8 | 128 | 0.0 | 0.0 | 0.00 | 0.00 | 0.00 | 85 | 1017.6 |
| 20260504042234 | 8 | 128 | 0.0 | 0.0 | 0.00 | 0.00 | 0.00 | 84 | 1017.5 |
| 20260504041730 | 8 | 128 | 0.0 | 0.0 | 0.00 | 0.00 | 0.00 | 87 | 1017.6 |
| 20260504041226 | 8 | 128 | 0.0 | 0.0 | 0.00 | 0.00 | 0.00 | 85 | 1017.8 |
| 20260504040722 | 8 | 128 | 0.0 | 0.0 | 0.00 | 0.00 | 0.00 | 85 | 1018.0 |
| 20260504040220 | 8 | 128 | 0.0 | 0.0 | 0.00 | 0.00 | 0.00 | 86 | 1017.9 |
| 20260504035716 | 8 | 128 | 0.0 | 0.0 | 0.00 | 0.00 | 0.00 | 85 | 1018.1 |
| 20260504035213 | 8 | 128 | 0.0 | 0.0 | 0.00 | 0.00 | 0.00 | 84 | 1018.0 |
| 20260504034711 | 8 | 128 | 0.0 | 0.0 | 0.00 | 0.00 | 0.00 | 84 | 1018.3 |
| 20260504034208 | 8 | 128 | 0.0 | 0.0 | 0.00 | 0.00 | 0.00 | 84 | 1018.3 |
| 20260504033705 | 8 | 128 | 0.0 | 0.0 | 0.00 | 0.00 | 0.00 | 85 | 1018.1 |
| 20260504033202 | 8 | 128 | 0.0 | 0.0 | 0.00 | 0.00 | 0.00 | 84 | 1018.2 |
| 20260504032659 | 8 | 128 | 0.0 | 0.0 | 0.00 | 0.00 | 0.00 | 83 | 1018.4 |
| 20260504032156 | 8 | 128 | 0.0 | 0.0 | 0.00 | 0.00 | 0.00 | 83 | 1018.3 |
| 20260504031653 | 8 | 128 | 0.0 | 0.0 | 0.00 | 0.00 | 0.00 | 82 | 1018.3 |
| 20260504031149 | 8 | 128 | 0.0 | 0.0 | 0.00 | 0.00 | 0.00 | 81 | 1018.3 |
| 20260504030646 | 9 | 128 | 0.0 | 0.0 | 0.00 | 0.00 | 0.00 | 80 | 1018.2 |
| 20260504030143 | 9 | 128 | 0.0 | 0.0 | 0.00 | 0.00 | 0.00 | 79 | 1018.1 |
| 20260504025640 | 9 | 128 | 0.0 | 0.0 | 0.00 | 0.00 | 0.00 | 81 | 1018.2 |
| 20260504025137 | 9 | 128 | 0.0 | 0.0 | 0.00 | 0.00 | 0.00 | 80 | 1018.1 |
| 20260504024634 | 9 | 128 | 0.0 | 0.0 | 0.00 | 0.00 | 0.00 | 81 | 1018.0 |
| 20260504024130 | 10 | 128 | 0.0 | 0.0 | 0.00 | 0.00 | 0.00 | 79 | 1018.1 |
| 20260504023627 | 10 | 128 | 0.0 | 0.0 | 0.00 | 0.00 | 0.00 | 76 | 1018.0 |
| 20260504023123 | 10 | 128 | 0.0 | 0.0 | 0.00 | 0.00 | 0.00 | 72 | 1018.0 |
| 20260504022620 | 10 | 128 | 0.0 | 0.0 | 0.00 | 0.00 | 0.00 | 73 | 1017.9 |
| 20260504022115 | 10 | 128 | 0.0 | 0.0 | 0.00 | 0.00 | 0.00 | 74 | 1017.9 |
| 20260504021614 | 10 | 128 | 0.0 | 0.0 | 0.00 | 0.00 | 0.00 | 74 | 1017.8 |
| 20260504021110 | 10 | 128 | 0.0 | 0.0 | 0.00 | 0.00 | 0.00 | 73 | 1017.9 |
| 20260504020607 | 10 | 128 | 0.0 | 0.0 | 0.00 | 0.00 | 0.00 | 72 | 1017.7 |
| 20260504020103 | 10 | 128 | 0.0 | 0.0 | 0.00 | 0.00 | 0.00 | 69 | 1017.9 |
| 20260504015600 | 11 | 128 | 0.0 | 0.0 | 0.00 | 0.00 | 0.00 | 69 | 1017.6 |
| 20260504015056 | 11 | 128 | 0.0 | 0.0 | 0.00 | 0.00 | 0.00 | 70 | 1017.7 |
| 20260504014552 | 11 | 128 | 0.0 | 0.0 | 0.00 | 0.00 | 0.00 | 68 | 1017.6 |
| 20260504014050 | 11 | 128 | 0.0 | 0.0 | 0.00 | 0.00 | 0.00 | 66 | 1017.5 |
| 20260504013547 | 11 | 128 | 0.0 | 0.0 | 0.00 | 0.00 | 0.00 | 67 | 1017.5 |
| 20260504013044 | 11 | 128 | 0.0 | 0.0 | 0.00 | 0.00 | 0.00 | 67 | 1017.5 |
| 20260504012541 | 11 | 128 | 0.0 | 0.0 | 0.00 | 0.00 | 0.00 | 67 | 1017.4 |
| 20260504012039 | 11 | 127 | 0.0 | 0.0 | 0.00 | 0.00 | 0.00 | 66 | 1017.4 |
| 20260504011536 | 11 | 127 | 0.0 | 0.0 | 0.00 | 0.00 | 0.00 | 66 | 1017.5 |
| 20260504011032 | 11 | 127 | 0.0 | 0.0 | 0.00 | 0.00 | 0.00 | 64 | 1017.5 |
| 20260504010527 | 11 | 127 | 0.0 | 0.0 | 0.00 | 0.00 | 0.00 | 65 | 1017.5 |
| 20260504010024 | 11 | 127 | 0.0 | 0.0 | 0.00 | 0.00 | 0.00 | 66 | 1017.3 |
| 20260504005520 | 11 | 127 | 0.0 | 0.0 | 0.00 | 0.00 | 0.00 | 66 | 1017.6 |
| 20260504005018 | 11 | 127 | 0.0 | 0.0 | 0.00 | 0.00 | 0.00 | 67 | 1017.5 |
| 20260504004516 | 12 | 127 | 0.0 | 0.0 | 0.00 | 0.00 | 0.00 | 65 | 1017.3 |
| 20260504004013 | 12 | 127 | 0.0 | 0.0 | 0.00 | 0.00 | 0.00 | 67 | 1017.3 |
| 20260504003508 | 12 | 127 | 0.0 | 0.0 | 0.00 | 0.00 | 0.00 | 69 | 1017.1 |
| 20260504003006 | 12 | 127 | 0.0 | 0.0 | 0.00 | 0.00 | 0.00 | 67 | 1017.2 |
| 20260504002502 | 12 | 127 | 0.0 | 0.0 | 0.00 | 0.00 | 0.00 | 67 | 1017.2 |
| 20260504002000 | 13 | 123 | 0.0 | 0.0 | 0.00 | 0.00 | 0.00 | 67 | 1017.3 |
| 20260504001457 | 13 | 121 | 0.0 | 0.0 | 0.00 | 0.00 | 0.00 | 63 | 1017.4 |
| 20260504000953 | 13 | 122 | 0.0 | 0.0 | 0.00 | 0.00 | 0.00 | 59 | 1017.2 |
| 20260504000451 | 14 | 128 | 0.0 | 1.6 | 0.00 | 0.00 | 0.00 | 59 | 1017.2 |
| 20260503235948 | 15 | 127 | 0.0 | 0.0 | 0.00 | 0.00 | 0.00 | 58 | 1017.2 |
| 20260503235445 | 15 | 150 | 0.0 | 0.0 | 0.00 | 0.00 | 0.00 | 54 | 1017.4 |
| 20260503234943 | 15 | 134 | 0.0 | 0.0 | 0.00 | 0.00 | 0.00 | 52 | 1017.3 |
| 20260503234440 | 15 | 135 | 0.0 | 0.0 | 0.00 | 0.00 | 0.00 | 52 | 1017.2 |
| 20260503233938 | 16 | 134 | 0.0 | 0.0 | 0.00 | 0.00 | 0.00 | 50 | 1017.3 |
| 20260503233434 | 16 | 113 | 0.0 | 0.0 | 0.00 | 0.00 | 0.00 | 49 | 1017.2 |
| 20260503232931 | 16 | 29 | 3.2 | 3.2 | 0.00 | 0.00 | 0.00 | 40 | 1017.3 |
| 20260503232428 | 16 | 336 | 1.6 | 1.6 | 0.00 | 0.00 | 0.00 | 49 | 1017.2 |
| 20260503231926 | 16 | 143 | 0.0 | 0.0 | 0.00 | 0.00 | 0.00 | 45 | 1017.2 |
| 20260503231423 | 16 | 135 | 0.0 | 0.0 | 0.00 | 0.00 | 0.00 | 43 | 1017.3 |
| 20260503230919 | 17 | 133 | 0.0 | 0.0 | 0.00 | 0.00 | 0.00 | 44 | 1017.2 |
| 20260503230416 | 17 | 141 | 0.0 | 0.0 | 0.00 | 0.00 | 0.00 | 42 | 1017.2 |
| 20260503225914 | 17 | 116 | 1.6 | 1.6 | 0.00 | 0.00 | 0.00 | 38 | 1017.4 |
| 20260503225410 | 17 | 146 | 0.0 | 1.6 | 0.00 | 0.00 | 0.00 | 43 | 1017.3 |
| 20260503224906 | 17 | 324 | 3.2 | 3.2 | 0.00 | 0.00 | 0.00 | 39 | 1017.2 |
| 20260503224403 | 17 | 227 | 1.6 | 1.6 | 0.00 | 0.00 | 0.00 | 45 | 1017.2 |
| 20260503223901 | 17 | 15 | 1.6 | 3.2 | 0.00 | 0.00 | 0.00 | 39 | 1017.4 |
| 20260503223359 | 18 | 322 | 8.0 | 11.3 | 0.00 | 0.00 | 0.00 | 36 | 1017.3 |
| 20260503222853 | 17 | 111 | 0.0 | 1.6 | 0.00 | 0.00 | 0.00 | 40 | 1017.4 |
| 20260503222352 | 17 | 182 | 0.0 | 1.6 | 0.00 | 0.00 | 0.00 | 42 | 1017.4 |
| 20260503221850 | 18 | 153 | 0.0 | 0.0 | 0.00 | 0.00 | 0.00 | 43 | 1017.6 |
| 20260503221349 | 18 | 129 | 0.0 | 1.6 | 0.00 | 0.00 | 0.00 | 37 | 1017.6 |
| 20260503220844 | 18 | 328 | 1.6 | 1.6 | 0.00 | 0.00 | 0.00 | 40 | 1017.7 |
| 20260503220341 | 18 | 133 | 0.0 | 1.6 | 0.00 | 0.00 | 0.00 | 42 | 1017.4 |
| 20260503215838 | 20 | 121 | 0.0 | 0.0 | 0.00 | 0.00 | 0.00 | 46 | 1017.7 |
| 20260503215335 | 20 | 203 | 1.6 | 1.6 | 0.00 | 0.00 | 0.00 | 38 | 1017.6 |
| 20260503214833 | 20 | 172 | 0.0 | 0.0 | 0.00 | 0.00 | 0.00 | 48 | 1017.8 |
| 20260503214330 | 20 | 78 | 1.6 | 1.6 | 0.00 | 0.00 | 0.00 | 39 | 1017.8 |
| 20260503213827 | 19 | 111 | 0.0 | 0.0 | 0.00 | 0.00 | 0.00 | 42 | 1017.7 |
| 20260503213325 | 20 | 303 | 3.2 | 4.8 | 0.00 | 0.00 | 0.00 | 40 | 1017.7 |
| 20260503212821 | 20 | 2 | 1.6 | 1.6 | 0.00 | 0.00 | 0.00 | 45 | 1017.9 |
| 20260503212320 | 20 | 348 | 1.6 | 1.6 | 0.00 | 0.00 | 0.00 | 45 | 1017.8 |
| 20260503211816 | 20 | 245 | 3.2 | 3.2 | 0.00 | 0.00 | 0.00 | 42 | 1017.9 |
| 20260503211313 | 20 | 181 | 1.6 | 1.6 | 0.00 | 0.00 | 0.00 | 42 | 1018.0 |
| 20260503210813 | 20 | 264 | 0.0 | 1.6 | 0.00 | 0.00 | 0.00 | 43 | 1018.0 |
| 20260503210311 | 19 | 133 | 0.0 | 0.0 | 0.00 | 0.00 | 0.00 | 48 | 1017.9 |
| 20260503205806 | 20 | 51 | 3.2 | 3.2 | 0.00 | 0.00 | 0.00 | 43 | 1018.2 |
| 20260503205304 | 20 | 117 | 1.6 | 3.2 | 0.00 | 0.00 | 0.00 | 40 | 1018.1 |
| 20260503204759 | 20 | 262 | 3.2 | 3.2 | 0.00 | 0.00 | 0.00 | 43 | 1018.3 |
| 20260503204257 | 20 | 282 | 0.0 | 1.6 | 0.00 | 0.00 | 0.00 | 46 | 1018.3 |
| 20260503203754 | 20 | 306 | 1.6 | 1.6 | 0.00 | 0.00 | 0.00 | 40 | 1018.3 |
| 20260503203251 | 20 | 174 | 0.0 | 0.0 | 0.00 | 0.00 | 0.00 | 43 | 1018.6 |
| 20260503202748 | 20 | 122 | 3.2 | 3.2 | 0.00 | 0.00 | 0.00 | 37 | 1018.6 |
| 20260503202246 | 20 | 15 | 6.4 | 6.4 | 0.00 | 0.00 | 0.00 | 37 | 1018.8 |
| 20260503201744 | 20 | 198 | 3.2 | 3.2 | 0.00 | 0.00 | 0.00 | 37 | 1018.9 |
| 20260503201241 | 20 | 194 | 3.2 | 4.8 | 0.00 | 0.00 | 0.00 | 41 | 1018.8 |
| 20260503200738 | 20 | 11 | 1.6 | 3.2 | 0.00 | 0.00 | 0.00 | 43 | 1018.6 |
| 20260503200234 | 20 | 311 | 3.2 | 3.2 | 0.00 | 0.00 | 0.00 | 42 | 1019.1 |
| 20260503195731 | 19 | 159 | 1.6 | 3.2 | 0.00 | 0.00 | 0.00 | 44 | 1018.9 |
| 20260503195228 | 20 | 41 | 3.2 | 4.8 | 0.00 | 0.00 | 0.00 | 41 | 1019.0 |
| 20260503194726 | 20 | 259 | 1.6 | 1.6 | 0.00 | 0.00 | 0.00 | 43 | 1019.3 |
| 20260503194221 | 18 | 168 | 0.0 | 0.0 | 0.00 | 0.00 | 0.00 | 44 | 1019.4 |
| 20260503193717 | 20 | 312 | 4.8 | 4.8 | 0.00 | 0.00 | 0.00 | 45 | 1019.3 |
| 20260503193214 | 20 | 283 | 3.2 | 3.2 | 0.00 | 0.00 | 0.00 | 45 | 1019.5 |
| 20260503192709 | 20 | 257 | 6.4 | 6.4 | 0.00 | 0.00 | 0.00 | 42 | 1019.5 |
| 20260503192205 | 19 | 248 | 0.0 | 1.6 | 0.00 | 0.00 | 0.00 | 49 | 1019.7 |
| 20260503191701 | 19 | 154 | 3.2 | 6.4 | 0.00 | 0.00 | 0.00 | 43 | 1019.7 |
| 20260503191159 | 19 | 340 | 1.6 | 3.2 | 0.00 | 0.00 | 0.00 | 42 | 1019.8 |
| 20260503190655 | 19 | 293 | 3.2 | 3.2 | 0.00 | 0.00 | 0.00 | 46 | 1020.0 |
| 20260503190152 | 20 | 282 | 3.2 | 4.8 | 0.00 | 0.00 | 0.00 | 42 | 1020.0 |
| 20260503185649 | 19 | 214 | 0.0 | 1.6 | 0.00 | 0.00 | 0.00 | 51 | 1020.0 |
| 20260503185144 | 19 | 143 | 1.6 | 3.2 | 0.00 | 0.00 | 0.00 | 39 | 1020.2 |
| 20260503184639 | 18 | 170 | 1.6 | 1.6 | 0.00 | 0.00 | 0.00 | 44 | 1020.2 |
| 20260503184136 | 18 | 278 | 3.2 | 3.2 | 0.00 | 0.00 | 0.00 | 43 | 1020.2 |
| 20260503183632 | 20 | 151 | 3.2 | 3.2 | 0.00 | 0.00 | 0.00 | 41 | 1020.5 |
| 20260503183130 | 19 | 163 | 0.0 | 1.6 | 0.00 | 0.00 | 0.00 | 52 | 1020.3 |
| 20260503182628 | 18 | 228 | 0.0 | 1.6 | 0.00 | 0.00 | 0.00 | 46 | 1020.5 |
| 20260503182126 | 18 | 268 | 3.2 | 3.2 | 0.00 | 0.00 | 0.00 | 45 | 1020.6 |
| 20260503181623 | 18 | 78 | 3.2 | 4.8 | 0.00 | 0.00 | 0.00 | 50 | 1020.6 |
| 20260503181119 | 18 | 110 | 1.6 | 1.6 | 0.00 | 0.00 | 0.00 | 48 | 1020.7 |
| 20260503180616 | 18 | 150 | 0.0 | 1.6 | 0.00 | 0.00 | 0.00 | 52 | 1020.5 |
| 20260503180114 | 18 | 12 | 1.6 | 1.6 | 0.00 | 0.00 | 0.00 | 55 | 1020.5 |
| 20260503175611 | 18 | 97 | 1.6 | 1.6 | 0.00 | 0.00 | 0.00 | 46 | 1020.7 |
| 20260503175108 | 18 | 102 | 0.0 | 0.0 | 0.00 | 0.00 | 0.00 | 53 | 1020.6 |
| 20260503174605 | 18 | 212 | 3.2 | 3.2 | 0.00 | 0.00 | 0.00 | 48 | 1020.7 |
| 20260503174102 | 18 | 149 | 3.2 | 4.8 | 0.00 | 0.00 | 0.00 | 50 | 1020.8 |
| 20260503173556 | 18 | 135 | 0.0 | 1.6 | 0.00 | 0.00 | 0.00 | 56 | 1020.7 |
| 20260503173053 | 17 | 160 | 1.6 | 1.6 | 0.00 | 0.00 | 0.00 | 44 | 1020.8 |
| 20260503172551 | 17 | 48 | 0.0 | 1.6 | 0.00 | 0.00 | 0.00 | 51 | 1020.9 |
| 20260503172048 | 17 | 290 | 1.6 | 1.6 | 0.00 | 0.00 | 0.00 | 53 | 1020.9 |
| 20260503171544 | 17 | 40 | 1.6 | 1.6 | 0.00 | 0.00 | 0.00 | 47 | 1021.1 |
| 20260503171042 | 17 | 41 | 1.6 | 1.6 | 0.00 | 0.00 | 0.00 | 53 | 1021.0 |
| 20260503170538 | 16 | 301 | 1.6 | 3.2 | 0.00 | 0.00 | 0.00 | 52 | 1021.1 |